Regional Weather Roundup
Issued by NWS Green Bay, WI

Home | Current Version | Previous Version | Graphics & Text | Print | Product List | Glossary Off
Versions: 1 2 3 4 5 6 7 8 9 10 11 12 13 14 15 16 17 18 19 20 21 22 23 24 25 26 27 28 29 30 31 32 33 34 35 36 37 38 39 40 41 42 43 44 45 46 47 48 49 50

080
ASUS43 KGRB 122300
RWRGRB

NORTH-CENTRAL AND NORTHEAST WISCONSIN REGIONAL WEATHER ROUNDUP
NATIONAL WEATHER SERVICE GREEN BAY WI
500 PM CST FRI FEB 12 2016

WIZ005-009-010>012-018-019-130000-
NORTH CENTRAL WISCONSIN

CITY           SKY/WX    TMP DP  RH WIND       PRES   REMARKS
IRONWOOD       CLOUDY     1  -6  71 NW15      30.32R WCI -18
MANITOWISH WTR NOT AVBL
ARBOR VITAE    NOT AVBL
EAGLE RIVER    NOT AVBL
LAND O LAKES   NOT AVBL
RHINELANDER    MOCLDY    -1 -13  56 NW15G22   30.26R WCI -21
PHILLIPS       NOT AVBL
ANTIGO         NOT AVBL
TOMAHAWK       NOT AVBL
MERRILL        NOT AVBL
$$

WIZ013-073-130000-
NORTHEAST WISCONSIN

CITY           SKY/WX    TMP DP  RH WIND       PRES   REMARKS
IRON MOUNTAIN  PTCLDY     0 -14  51 NW18G28   30.24R WCI -21
MARINETTE      PTCLDY     5 -15  39 NW18G30   30.26R WCI -15
$$

WIZ017-030-035>037-045-130000-
CENTRAL WISCONSIN

CITY           SKY/WX    TMP DP  RH WIND       PRES   REMARKS
MEDFORD        NOT AVBL
WAUSAU         PTCLDY     5 -11  47 NW15G26   30.29R WCI -13
MOSINEE        PTCLDY     5  -9  51 NW20G29   30.31R WCI -15
MARSHFIELD     CLEAR      5 -13  43 NW23      30.31R WCI -17
WISC RAPIDS    CLEAR      7 -12  41 N22G28    30.34R WCI -14
STEVENS POINT  NOT AVBL
WAUPACA        CLEAR     11 -12  34 NW20G25   30.30R WCI  -7
SHAWANO        PTCLDY     9 -11  40 N13       30.30R WCI  -7
CLINTONVILLE   NOT AVBL
WAUTOMA        NOT AVBL
$$

WIZ038-039-048-051-130000-
FOX VALLEY

CITY           SKY/WX    TMP DP  RH WIND       PRES   REMARKS
NWS GREEN BAY  CLEAR      8  -8  48 NW14      30.28R WCI  -8
APPLETON       PTCLDY     9 -13  37 NW17G29   30.25R WCI -10
OSHKOSH        PTCLDY    10  -9  42 NW17G26   30.26R WCI  -8
FOND DU LAC    CLEAR     11  -8  42 NW20G26   30.26R WCI  -7
$$

WIZ022-050-052-130000-
EAST CENTRAL WISCONSIN

CITY           SKY/WX    TMP DP  RH WIND       PRES   REMARKS
EPHRAIM        MOCLDY     4 -13  45 NW15G29   30.23R WCI -14
STURGEON BAY     N/A      7 N/A N/A NW22G28   30.26R WCI -14
MANITOWOC      NOT AVBL
SHEBOYGAN      MOCLDY    11  -7  44 NW16G28   30.24R WCI  -6
$$

LMZ563-521-522-541>543-130000-
LAKESHORE

STATION/POSITION TIME  TEMP    WIND        PRES    VSBY  WAVE
                       AIR SEA DIR/SP/G                  HT/PER
                 (UTC) (F)     (DEG/KT/KT) (MB)    (MI)  (FT/S)
SHEBOYGAN LKSHOR 2200   14     320/ 17/ 20 1024.3R
KEWAUNEE LKSHORE 2200   11     320/ 15/ 26 1021.8R
ALGOMA MARINA    2211          320/ 19/ 30   N/A
CHAMBERS ISLAND  2200    7     310/ 18/ 25 1023.4R
MENOMINEE LKSHOR 2200    8     320/ 19     1022.4R
$$




USA.gov is the U.S. government's official web portal to all federal, state and local government web resources and services.